FW7729 Weather Reports


Display with metric or nautical units.
time (UTC)temp
F
wind
direction
speed
MPH
gust
MPH
rain 1hr
in
rain 24hr
in
rain mn
in
humidity
%
barometer
mb
20260904143026 75 239 1.0 0.0 0.00 0.89 0.06 10 1014.0
20260904141922 74 231 0.0 0.0 0.00 0.89 0.06 10 1014.0
20260904141348 74 198 0.0 0.0 0.00 0.89 0.06 10 1013.9
20260904140814 74 170 0.0 0.0 0.00 0.89 0.06 10 1014.0
20260904140240 73 170 0.0 0.0 0.00 0.89 0.06 10 1014.1
20260904135132 73 169 0.0 0.0 0.00 0.89 0.06 10 1014.1
20260904134558 73 170 0.0 0.0 0.00 0.89 0.06 10 1014.1
20260904132924 72 170 0.0 0.0 0.00 0.89 0.06 10 1014.1
20260904132350 72 170 0.0 0.0 0.00 0.89 0.06 10 1013.8
20260904131246 71 170 0.0 0.0 0.00 0.89 0.06 10 1013.9
20260904130712 71 169 0.0 0.0 0.00 0.89 0.06 10 1014.1
20260904130138 71 170 0.0 0.0 0.00 0.89 0.06 10 1014.3
20260904125604 71 170 0.0 0.0 0.00 0.89 0.06 10 1014.3
20260904125030 71 170 0.0 0.0 0.00 0.89 0.06 10 1014.3
20260904123926 71 170 0.0 0.0 0.00 0.89 0.06 10 1014.3
20260904122252 70 170 0.0 0.0 0.00 0.89 0.06 10 1013.9
20260904121718 70 169 0.0 0.0 0.00 0.89 0.06 10 1013.8
20260904121143 70 170 0.0 0.0 0.00 0.89 0.06 10 1013.8
20260904115509 70 170 0.0 0.0 0.00 0.89 0.06 10 1014.1
20260904114935 69 170 0.0 0.0 0.00 0.89 0.06 10 1014.1
20260904113831 69 169 0.0 0.0 0.00 0.89 0.06 10 1014.0
20260904113257 69 170 0.0 0.0 0.00 0.89 0.06 10 1013.9
20260904112723 69 170 0.0 0.0 0.00 0.89 0.06 10 1013.8
20260904112149 69 169 0.0 0.0 0.00 0.89 0.06 10 1013.8
20260904111615 69 161 0.0 0.0 0.00 0.89 0.06 10 1013.9
20260904104310 69 160 0.0 0.0 0.00 0.89 0.06 10 1013.8
20260904103737 69 160 0.0 0.0 0.00 0.89 0.06 10 1013.8
20260904103202 69 160 0.0 0.0 0.00 0.89 0.06 10 1013.8
20260904102628 69 160 0.0 0.0 0.00 0.89 0.06 10 1013.6
20260904102053 69 160 0.0 0.0 0.00 0.89 0.06 10 1013.3
20260904101519 69 160 0.0 0.0 0.00 0.89 0.06 10 1013.1
20260904100415 69 237 0.0 0.0 0.00 0.89 0.06 10 1013.4
20260904095841 69 237 0.0 0.0 0.00 0.89 0.06 10 1013.0
20260904095307 69 359 0.0 0.0 0.00 0.89 0.06 10 1012.6
20260904094733 69 236 0.0 0.0 0.00 0.89 0.06 10 1012.5
20260904094159 69 237 0.0 0.0 0.00 0.89 0.06 10 1012.5
20260904093625 69 237 0.0 0.0 0.00 0.89 0.06 10 1012.5
20260904092521 69 236 0.0 0.0 0.00 0.89 0.06 10 1012.4
20260904091416 69 237 0.0 0.0 0.00 0.89 0.06 10 1012.2
20260904090312 69 236 0.0 0.0 0.00 0.89 0.06 10 1012.5
20260904085738 69 359 0.0 0.0 0.00 0.89 0.06 10 1012.5
20260904085204 69 237 0.0 0.0 0.00 0.89 0.06 10 1012.5
20260904084100 69 237 0.0 0.0 0.01 0.89 0.06 10 1012.7
20260904083526 69 237 0.0 0.0 0.01 0.89 0.06 10 1012.6
20260904081852 69 359 0.0 0.0 0.01 0.89 0.06 10 1012.8
20260904081318 69 237 0.0 0.0 0.01 0.89 0.06 10 1012.8
20260904080744 69 236 0.0 0.0 0.01 0.89 0.06 10 1012.7
20260904080210 69 237 0.0 0.0 0.01 0.89 0.06 10 1012.6
20260904075106 69 236 0.0 0.0 0.01 0.89 0.06 10 1012.9
20260904074002 69 237 0.0 0.0 0.00 0.88 0.05 10 1012.8
20260904073428 69 237 0.0 0.0 0.00 0.88 0.05 10 1012.8
20260904072854 69 359 0.0 0.0 0.00 0.88 0.05 10 1012.8
20260904072320 69 237 0.0 0.0 0.00 0.88 0.05 10 1012.8
20260904070646 69 237 0.0 0.0 0.00 0.88 0.05 10 1013.0
20260904070112 69 237 0.0 0.0 0.00 0.88 0.05 10 1013.0
20260904065538 69 236 0.0 0.0 0.00 0.88 0.05 10 1013.1
20260904065004 69 237 0.0 0.0 0.00 0.88 0.05 10 1013.2
20260904064429 69 237 0.0 0.0 0.00 0.88 0.05 10 1013.0
20260904063855 69 359 1.0 0.0 0.00 0.88 0.05 10 1012.8
20260904063322 69 237 0.0 0.0 0.00 0.88 0.05 10 1012.5
20260904062217 69 237 0.0 0.0 0.00 0.88 0.05 10 1012.1
20260904060543 69 236 0.0 0.0 0.01 0.88 0.05 10 1011.9
20260904055439 69 236 0.0 0.0 0.03 0.88 0.05 10 1011.8
20260904053235 69 237 0.0 0.0 0.05 0.88 0.05 10 1012.5
20260904052701 69 237 0.0 0.0 0.05 0.88 0.05 10 1012.5
20260904052127 69 359 0.0 0.0 0.05 0.88 0.05 10 1012.8
20260904051023 70 237 0.0 0.0 0.04 0.87 0.04 10 1013.4
20260904050449 70 237 0.0 0.0 0.04 0.87 0.04 10 1013.6
20260904045915 70 237 1.0 0.0 0.04 0.86 0.03 10 1013.7
20260904044240 70 237 0.0 0.0 0.08 0.84 0.01 10 1014.1
20260904043706 70 359 0.0 0.0 0.39 0.84 0.01 10 1014.4
20260904043132 70 359 0.0 0.0 0.71 0.83 0.83 10 1015.1
20260904042558 70 237 0.0 0.0 0.82 0.83 0.83 10 1015.4
20260904042024 70 237 0.0 0.0 0.82 0.83 0.83 10 1015.7
20260904041450 70 237 2.0 0.0 0.82 0.83 0.83 10 1015.7
20260904040346 70 15 0.0 0.0 0.82 0.83 0.83 10 1015.8
20260904035812 70 11 1.0 0.0 0.82 0.82 0.82 10 1016.0
20260904035238 70 21 1.0 0.0 0.78 0.78 0.78 10 1015.7
20260904034704 71 81 1.0 0.0 0.77 0.77 0.77 10 1015.6
20260904034130 72 359 2.0 1.0 0.73 0.73 0.73 10 1016.7
20260904032452 78 322 1.0 0.0 0.01 0.01 0.01 10 1013.6
20260904031918 78 302 1.0 0.0 0.01 0.01 0.01 99 1013.2
20260904031343 79 232 0.0 0.0 0.01 0.01 0.01 96 1012.9
20260904030809 80 232 0.0 0.0 0.01 0.01 0.01 95 1012.5
20260904030235 80 232 0.0 0.0 0.00 0.00 0.00 95 1012.7
20260904025701 80 235 1.0 0.0 0.00 0.00 0.00 10 1012.6
20260904024557 80 220 0.0 0.0 0.00 0.00 0.00 10 1012.9
20260904024023 80 220 0.0 0.0 0.00 0.00 0.00 10 1013.1
20260904023449 80 220 0.0 0.0 0.00 0.00 0.00 10 1013.2
20260904022915 80 220 0.0 0.0 0.00 0.00 0.00 10 1013.3
20260904022341 80 220 0.0 0.0 0.00 0.00 0.00 10 1013.2
20260904021807 80 220 0.0 0.0 0.00 0.00 0.00 10 1013.3
20260904020703 81 220 0.0 0.0 0.00 0.00 0.00 10 1013.2
20260904020129 81 220 0.0 0.0 0.00 0.00 0.00 99 1013.3
20260904015555 81 220 0.0 0.0 0.00 0.00 0.00 99 1013.3
20260904014450 81 220 0.0 0.0 0.00 0.00 0.00 98 1013.3
20260904013916 82 220 0.0 0.0 0.00 0.00 0.00 97 1013.3
20260904012812 82 220 0.0 0.0 0.00 0.00 0.00 97 1013.3
20260904012238 82 220 0.0 0.0 0.00 0.00 0.00 97 1013.3
20260904011704 82 220 0.0 0.0 0.00 0.00 0.00 97 1013.1
20260904011130 82 220 0.0 0.0 0.00 0.00 0.00 97 1013.1
20260904010556 82 220 0.0 0.0 0.00 0.00 0.00 97 1013.1
20260904005452 82 220 0.0 0.0 0.00 0.00 0.00 97 1013.2
20260904004348 82 220 0.0 0.0 0.00 0.00 0.00 96 1013.3
20260904003814 82 220 0.0 0.0 0.00 0.00 0.00 96 1013.6
20260904003240 82 220 0.0 0.0 0.00 0.00 0.00 96 1013.6
20260904002706 83 220 0.0 0.0 0.00 0.00 0.00 96 1013.7
20260904001602 83 220 0.0 0.0 0.00 0.00 0.00 95 1013.7
20260904000457 84 220 0.0 0.0 0.00 0.00 0.00 94 1013.8
20260903235923 84 220 0.0 0.0 0.00 0.00 0.00 94 1013.7
20260903234819 84 220 0.0 0.0 0.00 0.00 0.00 93 1013.5
20260903234245 84 220 0.0 0.0 0.00 0.00 0.00 92 1013.4
20260903233711 85 220 0.0 0.0 0.00 0.00 0.00 92 1013.2
20260903232607 85 220 0.0 0.0 0.00 0.00 0.00 91 1013.0
20260903232033 85 220 0.0 0.0 0.00 0.00 0.00 91 1013.0
20260903231459 85 220 0.0 0.0 0.00 0.00 0.00 91 1012.9
20260903230925 85 220 0.0 0.0 0.00 0.00 0.00 90 1013.0
20260903230351 86 220 0.0 0.0 0.00 0.00 0.00 90 1013.0
20260903225817 86 220 0.0 0.0 0.00 0.00 0.00 90 1012.9
20260903225242 86 220 0.0 0.0 0.00 0.00 0.00 89 1012.9
20260903224708 87 220 0.0 0.0 0.00 0.00 0.00 89 1012.8
20260903223605 87 220 1.0 0.0 0.00 0.00 0.00 86 1012.5
20260903222500 88 220 0.0 0.0 0.00 0.00 0.00 85 1012.6
20260903221926 88 220 1.0 0.0 0.00 0.00 0.00 84 1012.5
20260903220822 88 211 1.0 0.0 0.00 0.00 0.00 84 1012.6
20260903215718 88 246 0.0 0.0 0.00 0.00 0.00 86 1012.7
20260903215144 88 246 1.0 0.0 0.00 0.00 0.00 84 1012.7
20260903213510 89 214 0.0 0.0 0.00 0.00 0.00 81 1012.7
20260903212936 89 214 1.0 0.0 0.00 0.00 0.00 80 1012.7
20260903212402 89 233 1.0 0.0 0.00 0.00 0.00 79 1012.8
20260903211258 89 245 1.0 0.0 0.00 0.00 0.00 80 1012.8
20260903210723 89 214 2.0 0.0 0.00 0.00 0.00 79 1012.7
20260903205049 89 237 1.0 0.0 0.00 0.00 0.00 81 1012.8
20260903204515 89 228 1.0 0.0 0.00 0.00 0.00 81 1012.9
20260903203941 89 285 2.0 0.0 0.00 0.00 0.00 80 1012.9
20260903203407 89 245 1.0 0.0 0.00 0.00 0.00 81 1013.1
20260903202833 88 268 0.0 0.0 0.00 0.00 0.00 82 1013.1
20260903202258 88 278 1.0 0.0 0.00 0.00 0.00 81 1013.1
20260903201724 88 243 2.0 0.0 0.00 0.00 0.00 81 1013.2
20260903201150 88 217 2.0 0.0 0.00 0.00 0.00 81 1013.3
20260903200616 88 243 0.0 0.0 0.00 0.00 0.00 82 1013.5
20260903195513 87 243 1.0 0.0 0.00 0.00 0.00 83 1013.5
20260903194938 87 193 0.0 0.0 0.00 0.00 0.00 83 1013.7
20260903193834 86 190 0.0 0.0 0.00 0.00 0.00 86 1013.8
20260903193300 86 175 0.0 0.0 0.00 0.00 0.00 84 1013.9
20260903192726 86 175 0.0 0.0 0.00 0.00 0.00 85 1013.9
20260903191622 86 175 1.0 0.0 0.00 0.00 0.00 86 1014.2
20260903191047 85 226 1.0 0.0 0.00 0.00 0.00 87 1014.4
20260903185944 84 264 0.0 0.0 0.00 0.00 0.00 89 1014.5
20260903185410 84 264 1.0 0.0 0.00 0.00 0.00 89 1014.7
20260903184835 84 264 0.0 0.0 0.00 0.00 0.00 89 1014.6
20260903184301 84 264 0.0 0.0 0.00 0.00 0.00 87 1014.7
20260903183157 84 274 1.0 0.0 0.00 0.05 0.00 87 1014.7
20260903182623 84 276 0.0 0.0 0.00 0.05 0.00 87 1014.7
20260903182049 84 275 0.0 0.0 0.00 0.05 0.00 87 1014.7
20260903175845 83 237 1.0 0.0 0.00 0.05 0.00 85 1015.1
20260903175311 84 228 1.0 0.0 0.00 0.05 0.00 87 1015.2
20260903174737 83 227 0.0 0.0 0.00 0.05 0.00 87 1014.9
20260903174203 84 227 1.0 0.0 0.00 0.05 0.00 87 1015.0
20260903173629 84 227 0.0 0.0 0.00 0.05 0.00 87 1015.2
20260903173055 83 228 0.0 0.0 0.00 0.05 0.00 87 1015.6
20260903171951 83 228 0.0 0.0 0.00 0.05 0.00 89 1016.0
20260903171417 83 228 0.0 0.0 0.00 0.05 0.00 88 1016.1
20260903170313 83 228 0.0 0.0 0.00 0.05 0.00 90 1016.3
20260903165738 82 227 0.0 0.0 0.00 0.05 0.00 90 1016.2
20260903165204 81 228 0.0 0.0 0.00 0.05 0.00 93 1016.3
20260903164630 81 227 0.0 0.0 0.00 0.05 0.00 92 1016.5
20260903164056 81 125 0.0 0.0 0.00 0.05 0.00 92 1016.7
20260903163522 80 90 0.0 0.0 0.00 0.05 0.00 95 1016.6
20260903162418 80 90 0.0 0.0 0.00 0.05 0.00 97 1016.9
20260903161844 80 91 0.0 0.0 0.00 0.05 0.00 97 1017.0
20260903160210 79 212 0.0 0.0 0.00 0.05 0.00 99 1017.3
20260903155636 78 219 1.0 0.0 0.00 0.05 0.00 10 1017.3
20260903155102 78 248 0.0 0.0 0.00 0.05 0.00 10 1017.7
20260903153958 78 248 0.0 0.0 0.00 0.05 0.00 10 1018.0
20260903153424 78 248 0.0 0.0 0.00 0.05 0.00 10 1017.6
20260903152850 78 248 0.0 0.0 0.00 0.05 0.00 10 1016.8
20260903152315 78 248 1.0 0.0 0.00 0.05 0.00 10 1017.0
20260903151211 78 248 0.0 0.0 0.00 0.05 0.00 10 1016.9
20260903150107 77 247 0.0 0.0 0.00 0.05 0.00 10 1016.9
20260903145533 77 247 0.0 0.0 0.00 0.05 0.00 10 1016.8
20260903144959 77 247 1.0 0.0 0.00 0.05 0.00 10 1016.7
20260903144425 77 249 1.0 0.0 0.00 0.05 0.00 10 1016.8